カタログに戻る

COSMOS 2162

運用中軍事PO
NORAD 21733·PAYLOAD·🇷🇺 Russia

打ち上げ Sep 28, 1991 から Plesetsk Cosmodrome

Loading…

次のパス (今後24時間)

TLE

最新Source: Space-Track

元期: Sep 14, 2026, 08:21 UTC

1 21733U 91068F   26257.34811435  .00000007  00000-0 -22303-4 0  9993
2 21733  82.5844 282.7358 0007213  23.7648 347.2618 12.62440208611195

AllMySatでCOSMOS 2162をリアルタイム追跡

Download on the App Store